Weather History for Dublin, GA

Change the Weather History Date:

Sunday, August 10, 2014

  Actual Average Record
Temperature  
Mean Temperature 78 °F -  
Max Temperature 86 °F 92 °F 104 °F (1980)
Min Temperature 71 °F 68 °F 62 °F (1950)
Cooling Degree Days 14    
Growing Degree Days 28 (Base 50)    
Moisture  
Dew Point 74 °F    
Average Humidity 88    
Maximum Humidity 100    
Minimum Humidity 66    
Precipitation  
Precipitation 0.00 in - - ()
Sea Level Pressure  
Sea Level Pressure 30.02 in    
Wind  
Wind Speed 1 mph (North)    
Max Wind Speed 6 mph    
Max Gust Speed -    
Visibility 8 miles    
Events Rain , Thunderstorm    
Averages and records for this station are not official NWS values.
T = Trace of Precipitation, MM = Missing Value Source: NWS Daily Summary

Daily Weather History Graph

Daily Weather History Graph

Search for Another Location

Airport:

Trip Planner

Search our weather history database for the weather conditions in past years. The results will help you decide how hot, cold, wet, or windy it might be!

Date:

Astronomy

Aug. 10, 2014 Rise Set
Actual Time 6:52 AM EDT 8:21 PM EDT
Civil Twilight 6:26 AM EDT 8:47 PM EDT
Nautical Twilight 5:54 AM EDT 9:19 PM EDT
Astronomical Twilight 5:21 AM EDT 9:52 PM EDT
Moon 8:12 PM EDT (8/10) 6:40 AM EDT (8/10)
Length of Visible Light 14h 21m
Length of Day
13h 29m
Full, 100% of the Moon is Illuminated
Aug 10
Full
Aug 10
Full
Aug 17
Last Quarter
Aug 25
New
Sep 2
First Quarter

Hourly Weather History & Observations

Time (EDT) Temp. Heat Index Dew Point Humidity Pressure Visibility Wind Dir Wind Speed Gust Speed Precip Events Conditions
12:15 AM 77.0 °F - 75.2 °F 94% 30.04 in 10.0 mi Calm Calm - N/A   Clear
12:35 AM 75.2 °F - 75.2 °F 100% 30.04 in 10.0 mi Calm Calm - N/A   Clear
12:55 AM 75.2 °F - 75.2 °F 100% 30.03 in 10.0 mi WSW 3.5 mph - N/A   Clear
1:15 AM 77.0 °F - 75.2 °F 94% 30.01 in 10.0 mi Calm Calm - N/A   Clear
1:35 AM 75.2 °F - 73.4 °F 94% 30.01 in 10.0 mi Calm Calm - N/A   Clear
1:55 AM 75.2 °F - 75.2 °F 100% 30.01 in 7.0 mi Calm Calm - N/A   Clear
2:15 AM 75.2 °F - 73.4 °F 94% 30.01 in 7.0 mi Calm Calm - N/A   Clear
2:35 AM 73.4 °F - 73.4 °F 100% 30.01 in 5.0 mi Calm Calm - N/A   Clear
2:55 AM 73.4 °F - 73.4 °F 100% 30.01 in 7.0 mi NE 3.5 mph - N/A   Scattered Clouds
3:15 AM 73.4 °F - 73.4 °F 100% 30.01 in 7.0 mi Calm Calm - N/A   Mostly Cloudy
3:35 AM 71.6 °F - 71.6 °F 100% 30.00 in 5.0 mi Calm Calm - N/A   Scattered Clouds
3:55 AM 71.6 °F - 71.6 °F 100% 30.00 in 4.0 mi Calm Calm - N/A   Clear
4:15 AM 71.6 °F - 71.6 °F 100% 30.00 in 5.0 mi South 3.5 mph - N/A   Clear
4:35 AM 71.6 °F - 71.6 °F 100% 30.00 in 4.0 mi Calm Calm - N/A   Clear
4:55 AM 71.6 °F - 71.6 °F 100% 29.99 in 4.0 mi Calm Calm - N/A   Clear
5:15 AM 71.6 °F - 71.6 °F 100% 29.99 in 3.0 mi Calm Calm - N/A   Clear
5:35 AM 71.6 °F - 71.6 °F 100% 29.99 in 4.0 mi Calm Calm - N/A   Clear
5:55 AM 71.6 °F - 71.6 °F 100% 30.00 in 3.0 mi Calm Calm - N/A   Scattered Clouds
6:15 AM 71.6 °F - 71.6 °F 100% 30.00 in 3.0 mi Calm Calm - N/A   Scattered Clouds
6:35 AM 71.6 °F - 71.6 °F 100% 30.01 in 4.0 mi Calm Calm - N/A   Scattered Clouds
6:55 AM 71.6 °F - 71.6 °F 100% 30.02 in 4.0 mi Calm Calm - N/A   Scattered Clouds
7:15 AM 71.6 °F - 71.6 °F 100% 30.03 in 3.0 mi Calm Calm - N/A   Scattered Clouds
7:35 AM 71.6 °F - 71.6 °F 100% 30.04 in 4.0 mi Calm Calm - N/A   Clear
7:55 AM 73.4 °F - 73.4 °F 100% 30.05 in 4.0 mi Calm Calm - N/A   Clear
8:15 AM 73.4 °F - 73.4 °F 100% 30.06 in 5.0 mi Calm Calm - N/A   Scattered Clouds
8:35 AM 73.4 °F - 73.4 °F 100% 30.06 in 7.0 mi North 3.5 mph - N/A   Scattered Clouds
8:55 AM 73.4 °F - 73.4 °F 100% 30.07 in 7.0 mi Calm Calm - N/A   Scattered Clouds
9:15 AM 75.2 °F - 73.4 °F 94% 30.07 in 10.0 mi Calm Calm - N/A   Scattered Clouds
9:35 AM 77.0 °F - 73.4 °F 89% 30.07 in 10.0 mi Calm Calm - N/A   Scattered Clouds
9:55 AM 77.0 °F - 73.4 °F 89% 30.07 in 10.0 mi Calm Calm - N/A   Scattered Clouds
10:15 AM 77.0 °F - 73.4 °F 89% 30.07 in 10.0 mi Calm Calm - N/A   Scattered Clouds
10:35 AM 77.0 °F - 73.4 °F 89% 30.08 in 10.0 mi Calm Calm - N/A   Mostly Cloudy
10:55 AM 77.0 °F - 73.4 °F 89% 30.08 in 10.0 mi Calm Calm - N/A   Overcast
11:15 AM 78.8 °F - 73.4 °F 83% 30.08 in 10.0 mi Calm Calm - N/A   Mostly Cloudy
11:35 AM 78.8 °F - 73.4 °F 83% 30.08 in 10.0 mi Calm Calm - N/A   Overcast
11:55 AM 78.8 °F - 73.4 °F 83% 30.08 in 10.0 mi Calm Calm - N/A   Overcast
12:15 PM 80.6 °F 86.2 °F 75.2 °F 84% 30.07 in 10.0 mi Calm Calm - N/A   Mostly Cloudy
12:35 PM 82.4 °F 88.2 °F 73.4 °F 74% 30.06 in 10.0 mi Calm Calm - N/A   Scattered Clouds
12:55 PM 82.4 °F 88.2 °F 73.4 °F 74% 30.05 in 10.0 mi Calm Calm - N/A   Scattered Clouds
1:15 PM 82.4 °F 88.2 °F 73.4 °F 74% 30.04 in 10.0 mi Calm Calm - N/A   Mostly Cloudy
1:35 PM 84.2 °F 90.9 °F 73.4 °F 70% 30.04 in 10.0 mi Calm Calm - N/A   Mostly Cloudy
1:55 PM 82.4 °F 88.2 °F 73.4 °F 74% 30.04 in 10.0 mi Calm Calm - N/A   Overcast
2:15 PM 86.0 °F 93.4 °F 73.4 °F 66% 30.04 in 10.0 mi NW 4.6 mph - N/A   Overcast
2:35 PM 86.0 °F 93.4 °F 73.4 °F 66% 30.03 in 10.0 mi Calm Calm - N/A   Mostly Cloudy
2:55 PM 86.0 °F 93.4 °F 73.4 °F 66% 30.02 in 10.0 mi NW 4.6 mph - N/A   Mostly Cloudy
3:15 PM 86.0 °F 93.4 °F 73.4 °F 66% 30.01 in 10.0 mi Calm Calm - N/A   Overcast
3:35 PM 82.4 °F 88.2 °F 73.4 °F 74% 30.01 in 10.0 mi NNE 3.5 mph - N/A Rain Light Rain
3:55 PM 84.2 °F 90.9 °F 73.4 °F 70% 30.00 in 10.0 mi NNW 3.5 mph - N/A   Mostly Cloudy
4:15 PM 84.2 °F 90.9 °F 73.4 °F 70% 30.00 in 10.0 mi West 4.6 mph - N/A   Mostly Cloudy
4:35 PM 86.0 °F 93.4 °F 73.4 °F 66% 29.99 in 10.0 mi Calm Calm - N/A Rain Light Rain
4:55 PM 86.0 °F 93.4 °F 73.4 °F 66% 29.99 in 10.0 mi Calm Calm - N/A   Mostly Cloudy
5:15 PM 86.0 °F 93.4 °F 73.4 °F 66% 29.98 in 10.0 mi NNE 3.5 mph - N/A   Overcast
5:35 PM 86.0 °F 93.4 °F 73.4 °F 66% 29.98 in 10.0 mi North 3.5 mph - N/A   Overcast
5:55 PM 86.0 °F 93.4 °F 73.4 °F 66% 29.98 in 10.0 mi North 4.6 mph - N/A   Scattered Clouds
6:15 PM 84.2 °F 90.9 °F 73.4 °F 70% 29.99 in 10.0 mi NNE 4.6 mph - N/A   Mostly Cloudy
6:35 PM 82.4 °F 89.5 °F 75.2 °F 79% 29.98 in 10.0 mi North 4.6 mph - N/A   Scattered Clouds
6:55 PM 82.4 °F 88.2 °F 73.4 °F 74% 29.98 in 10.0 mi NNE 3.5 mph - N/A   Scattered Clouds
7:35 PM 80.6 °F 85.4 °F 73.4 °F 79% 29.99 in 10.0 mi NE 5.8 mph - N/A   Clear
7:55 PM 80.6 °F 86.2 °F 75.2 °F 84% 29.99 in 10.0 mi Calm Calm - N/A   Clear
8:15 PM 78.8 °F - 77.0 °F 94% 29.99 in 10.0 mi Calm Calm - N/A   Clear
8:35 PM 78.8 °F - 75.2 °F 89% 30.00 in 10.0 mi NNE 3.5 mph - N/A   Scattered Clouds
8:55 PM 78.8 °F - 77.0 °F 94% 30.00 in 10.0 mi Calm Calm - N/A   Scattered Clouds
9:15 PM 77.0 °F - 75.2 °F 94% 30.00 in 10.0 mi NE 3.5 mph - N/A   Scattered Clouds
9:35 PM 77.0 °F - 75.2 °F 94% 30.01 in 10.0 mi Calm Calm - N/A   Mostly Cloudy
9:55 PM 77.0 °F - 75.2 °F 94% 30.01 in 10.0 mi Calm Calm - N/A   Mostly Cloudy
10:15 PM 77.0 °F - 75.2 °F 94% 30.03 in 10.0 mi Calm Calm - N/A   Scattered Clouds
10:35 PM 77.0 °F - 75.2 °F 94% 30.03 in 10.0 mi Calm Calm - N/A   Clear
10:55 PM 77.0 °F - 75.2 °F 94% 30.03 in 10.0 mi NE 3.5 mph - N/A   Mostly Cloudy
11:15 PM 77.0 °F - 75.2 °F 94% 30.04 in 10.0 mi Calm Calm - N/A Thunderstorm Overcast
11:55 PM 77.0 °F - 75.2 °F 94% 30.04 in 10.0 mi NE 3.5 mph - N/A   Mostly Cloudy